Year,Month,Day,Hour,Minute,Value (Times are PST for temperature in C)
2022,04,27,00,00,6.20
2022,04,27,00,01,6.10
2022,04,27,00,02,6.10
2022,04,27,00,03,6.10
2022,04,27,00,04,6.10
2022,04,27,00,05,6.10
2022,04,27,00,06,6.00
2022,04,27,00,07,6.00
2022,04,27,00,08,6.00
2022,04,27,00,09,6.00
2022,04,27,00,10,6.00
2022,04,27,00,11,6.00
2022,04,27,00,12,5.90
2022,04,27,00,13,5.90
2022,04,27,00,14,5.90
2022,04,27,00,15,5.90
2022,04,27,00,16,5.90
2022,04,27,00,17,5.90
2022,04,27,00,18,5.90
2022,04,27,00,19,5.90
2022,04,27,00,20,5.90
2022,04,27,00,21,5.90
2022,04,27,00,22,5.90
2022,04,27,00,23,5.90
2022,04,27,00,24,5.90
2022,04,27,00,25,5.90
2022,04,27,00,26,5.90
2022,04,27,00,27,5.90
2022,04,27,00,28,5.90
2022,04,27,00,29,5.90
2022,04,27,00,30,5.90
2022,04,27,00,31,5.90
2022,04,27,00,32,5.90
2022,04,27,00,33,5.90
2022,04,27,00,34,5.90
2022,04,27,00,35,5.90
2022,04,27,00,36,5.90
2022,04,27,00,37,5.90
2022,04,27,00,38,5.90
2022,04,27,00,39,5.90
2022,04,27,00,40,5.90
2022,04,27,00,41,5.90
2022,04,27,00,42,5.90
2022,04,27,00,43,5.90
2022,04,27,00,44,5.90
2022,04,27,00,45,5.90
2022,04,27,00,46,5.90
2022,04,27,00,47,5.90
2022,04,27,00,48,5.90
2022,04,27,00,49,5.90
2022,04,27,00,50,5.90
2022,04,27,00,51,5.90
2022,04,27,00,52,5.90
2022,04,27,00,53,5.90
2022,04,27,00,54,6.00
2022,04,27,00,55,6.00
2022,04,27,00,56,6.00
2022,04,27,00,57,6.00
2022,04,27,00,58,6.00
2022,04,27,00,59,6.00
2022,04,27,01,00,6.00
2022,04,27,01,01,6.00
2022,04,27,01,02,6.00
2022,04,27,01,03,6.00
2022,04,27,01,04,6.00
2022,04,27,01,05,6.00
2022,04,27,01,06,6.00
2022,04,27,01,07,6.00
2022,04,27,01,08,6.10
2022,04,27,01,09,6.10
2022,04,27,01,10,6.10
2022,04,27,01,11,6.10
2022,04,27,01,12,6.10
2022,04,27,01,13,6.00
2022,04,27,01,14,6.00
2022,04,27,01,15,6.00
2022,04,27,01,16,6.00
2022,04,27,01,17,6.00
2022,04,27,01,18,6.00
2022,04,27,01,19,6.00
2022,04,27,01,20,6.00
2022,04,27,01,21,6.00
2022,04,27,01,22,6.00
2022,04,27,01,23,6.00
2022,04,27,01,24,6.00
2022,04,27,01,25,6.00
2022,04,27,01,26,6.00
2022,04,27,01,27,6.00
2022,04,27,01,28,6.00
2022,04,27,01,29,6.00
2022,04,27,01,30,6.00
2022,04,27,01,31,5.90
2022,04,27,01,32,5.90
2022,04,27,01,33,5.90
2022,04,27,01,34,5.90
2022,04,27,01,35,5.90
2022,04,27,01,36,5.90
2022,04,27,01,37,5.90
2022,04,27,01,38,5.90
2022,04,27,01,39,5.90
2022,04,27,01,40,5.90
2022,04,27,01,41,5.90
2022,04,27,01,42,5.90
2022,04,27,01,43,5.90
2022,04,27,01,44,5.90
2022,04,27,01,45,5.90
2022,04,27,01,46,5.90
2022,04,27,01,47,5.90
2022,04,27,01,48,5.90
2022,04,27,01,49,5.90
2022,04,27,01,50,5.90
2022,04,27,01,51,5.90
2022,04,27,01,52,5.90
2022,04,27,01,53,5.90
2022,04,27,01,54,5.90
2022,04,27,01,55,5.90
2022,04,27,01,56,5.90
2022,04,27,01,57,5.90
2022,04,27,01,58,5.90
2022,04,27,01,59,5.90
2022,04,27,02,00,5.90
2022,04,27,02,01,5.90
2022,04,27,02,02,5.90
2022,04,27,02,03,5.90
2022,04,27,02,04,5.90
2022,04,27,02,05,5.90
2022,04,27,02,06,5.90
2022,04,27,02,07,5.90
2022,04,27,02,08,5.90
2022,04,27,02,09,5.90
2022,04,27,02,10,5.90
2022,04,27,02,11,5.90
2022,04,27,02,12,5.80
2022,04,27,02,13,5.90
2022,04,27,02,14,5.80
2022,04,27,02,15,5.80
2022,04,27,02,16,5.80
2022,04,27,02,17,5.80
2022,04,27,02,18,5.80
2022,04,27,02,19,5.80
2022,04,27,02,20,5.80
2022,04,27,02,21,5.80
2022,04,27,02,22,5.80
2022,04,27,02,23,5.80
2022,04,27,02,24,5.80
2022,04,27,02,25,5.80
2022,04,27,02,26,5.80
2022,04,27,02,27,5.80
2022,04,27,02,28,5.80
2022,04,27,02,29,5.80
2022,04,27,02,30,5.80
2022,04,27,02,31,5.80
2022,04,27,02,32,5.80
2022,04,27,02,33,5.80
2022,04,27,02,34,5.80
2022,04,27,02,35,5.80
2022,04,27,02,36,5.80
2022,04,27,02,37,5.80
2022,04,27,02,38,5.80
2022,04,27,02,39,5.80
2022,04,27,02,40,5.80
2022,04,27,02,41,5.80
2022,04,27,02,42,5.80
2022,04,27,02,43,5.70
2022,04,27,02,44,5.70
2022,04,27,02,45,5.70
2022,04,27,02,46,5.70
2022,04,27,02,47,5.70
2022,04,27,02,48,5.70
2022,04,27,02,49,5.70
2022,04,27,02,50,5.70
2022,04,27,02,51,5.70
2022,04,27,02,52,5.70
2022,04,27,02,53,5.70
2022,04,27,02,54,5.70
2022,04,27,02,55,5.70
2022,04,27,02,56,5.70
2022,04,27,02,57,5.70
2022,04,27,02,58,5.70
2022,04,27,02,59,5.70
2022,04,27,03,00,5.70
2022,04,27,03,01,5.70
2022,04,27,03,02,5.60
2022,04,27,03,03,5.70
2022,04,27,03,04,5.70
2022,04,27,03,05,5.70
2022,04,27,03,06,5.70
2022,04,27,03,07,5.70
2022,04,27,03,08,5.70
2022,04,27,03,09,5.60
2022,04,27,03,10,5.70
2022,04,27,03,11,5.70
2022,04,27,03,12,5.70
2022,04,27,03,13,5.70
2022,04,27,03,14,5.70
2022,04,27,03,15,5.70
2022,04,27,03,16,5.70
2022,04,27,03,17,5.70
2022,04,27,03,18,5.70
2022,04,27,03,19,5.70
2022,04,27,03,20,5.70
2022,04,27,03,21,5.70
2022,04,27,03,22,5.70
2022,04,27,03,23,5.70
2022,04,27,03,24,5.70
2022,04,27,03,25,5.70
2022,04,27,03,26,5.80
2022,04,27,03,27,5.80
2022,04,27,03,28,5.80
2022,04,27,03,29,5.80
2022,04,27,03,30,5.80
2022,04,27,03,31,5.80
2022,04,27,03,32,5.80
2022,04,27,03,33,5.80
2022,04,27,03,34,5.80
2022,04,27,03,35,5.80
2022,04,27,03,36,5.80
2022,04,27,03,37,5.90
2022,04,27,03,38,5.90
2022,04,27,03,39,5.90
2022,04,27,03,40,5.90
2022,04,27,03,41,5.90
2022,04,27,03,42,5.90
2022,04,27,03,43,5.90
2022,04,27,03,44,5.90
2022,04,27,03,45,5.90
2022,04,27,03,46,5.90
2022,04,27,03,47,5.90
2022,04,27,03,48,5.90
2022,04,27,03,49,6.00
2022,04,27,03,50,6.00
2022,04,27,03,51,6.00
2022,04,27,03,52,6.00
2022,04,27,03,53,6.10
2022,04,27,03,54,6.10
2022,04,27,03,55,6.10
2022,04,27,03,56,6.10
2022,04,27,03,57,6.10
2022,04,27,03,58,6.10
2022,04,27,03,59,6.20
2022,04,27,04,00,6.20
2022,04,27,04,01,6.20
2022,04,27,04,02,6.20
2022,04,27,04,03,6.20
2022,04,27,04,04,6.20
2022,04,27,04,05,6.20
2022,04,27,04,06,6.20
2022,04,27,04,07,6.20
2022,04,27,04,08,6.20
2022,04,27,04,09,6.20
2022,04,27,04,10,6.20
2022,04,27,04,11,6.20
2022,04,27,04,12,6.30
2022,04,27,04,13,6.30
2022,04,27,04,14,6.30
2022,04,27,04,15,6.30
2022,04,27,04,16,6.30
2022,04,27,04,17,6.30
2022,04,27,04,18,6.30
2022,04,27,04,19,6.40
2022,04,27,04,20,6.40
2022,04,27,04,21,6.40
2022,04,27,04,22,6.40
2022,04,27,04,23,6.40
2022,04,27,04,24,6.40
2022,04,27,04,25,6.50
2022,04,27,04,26,6.50
2022,04,27,04,27,6.50
2022,04,27,04,28,6.50
2022,04,27,04,29,6.50
2022,04,27,04,30,6.50
2022,04,27,04,31,6.50
2022,04,27,04,32,6.50
2022,04,27,04,33,6.50
2022,04,27,04,34,6.50
2022,04,27,04,35,6.50
2022,04,27,04,36,6.50
2022,04,27,04,37,6.50
2022,04,27,04,38,6.50
2022,04,27,04,39,6.50
2022,04,27,04,40,6.50
2022,04,27,04,41,6.50
2022,04,27,04,42,6.50
2022,04,27,04,43,6.50
2022,04,27,04,44,6.50
2022,04,27,04,45,6.50
2022,04,27,04,46,6.50
2022,04,27,04,47,6.50
2022,04,27,04,48,6.50
2022,04,27,04,49,6.50
2022,04,27,04,50,6.50
2022,04,27,04,51,6.50
2022,04,27,04,52,6.50
2022,04,27,04,53,6.50
2022,04,27,04,54,6.50
2022,04,27,04,55,6.50
2022,04,27,04,56,6.50
2022,04,27,04,57,6.50
2022,04,27,04,58,6.50
2022,04,27,04,59,6.50
2022,04,27,05,00,6.50
2022,04,27,05,01,6.50
2022,04,27,05,02,6.50
2022,04,27,05,03,6.50
2022,04,27,05,04,6.50
2022,04,27,05,05,6.50
2022,04,27,05,06,6.50
2022,04,27,05,07,6.50
2022,04,27,05,08,6.50
2022,04,27,05,09,6.40
2022,04,27,05,10,6.40
2022,04,27,05,11,6.40
2022,04,27,05,12,6.40
2022,04,27,05,13,6.40
2022,04,27,05,14,6.40
2022,04,27,05,15,6.40
2022,04,27,05,16,6.40
2022,04,27,05,17,6.40
2022,04,27,05,18,6.40
2022,04,27,05,19,6.40
2022,04,27,05,20,6.40
2022,04,27,05,21,6.40
2022,04,27,05,22,6.40
2022,04,27,05,23,6.40
2022,04,27,05,24,6.40
2022,04,27,05,25,6.40
2022,04,27,05,26,6.40
2022,04,27,05,27,6.40
2022,04,27,05,28,6.40
2022,04,27,05,29,6.40
2022,04,27,05,30,6.40
2022,04,27,05,31,6.40
2022,04,27,05,32,6.40
2022,04,27,05,33,6.40
2022,04,27,05,34,6.40
2022,04,27,05,35,6.40
2022,04,27,05,36,6.40
2022,04,27,05,37,6.40
2022,04,27,05,38,6.40
2022,04,27,05,39,6.40
2022,04,27,05,40,6.40
2022,04,27,05,41,6.40
2022,04,27,05,42,6.40
2022,04,27,05,43,6.40
2022,04,27,05,44,6.40
2022,04,27,05,45,6.40
2022,04,27,05,46,6.40
2022,04,27,05,47,6.40
2022,04,27,05,48,6.40
2022,04,27,05,49,6.40
2022,04,27,05,50,6.40
2022,04,27,05,51,6.40
2022,04,27,05,52,6.40
2022,04,27,05,53,6.40
2022,04,27,05,54,6.40
2022,04,27,05,55,6.40
2022,04,27,05,56,6.40
2022,04,27,05,57,6.40
2022,04,27,05,58,6.40
2022,04,27,05,59,6.40
2022,04,27,06,00,6.40
2022,04,27,06,01,6.40
2022,04,27,06,02,6.40
2022,04,27,06,03,6.40
2022,04,27,06,04,6.40
2022,04,27,06,05,6.40
2022,04,27,06,06,6.40
2022,04,27,06,07,6.40
2022,04,27,06,08,6.40
2022,04,27,06,09,6.30
2022,04,27,06,10,6.40
2022,04,27,06,11,6.30
2022,04,27,06,12,6.30
2022,04,27,06,13,6.30
2022,04,27,06,14,6.30
2022,04,27,06,15,6.30
2022,04,27,06,16,6.30
2022,04,27,06,17,6.30
2022,04,27,06,18,6.30
2022,04,27,06,19,6.30
2022,04,27,06,20,6.30
2022,04,27,06,21,6.30
2022,04,27,06,22,6.30
2022,04,27,06,23,6.30
2022,04,27,06,24,6.30
2022,04,27,06,25,6.30
2022,04,27,06,26,6.30
2022,04,27,06,27,6.30
2022,04,27,06,28,6.30
2022,04,27,06,29,6.30
2022,04,27,06,30,6.30
2022,04,27,06,31,6.30
2022,04,27,06,32,6.30
2022,04,27,06,33,6.30
2022,04,27,06,34,6.30
2022,04,27,06,35,6.30
2022,04,27,06,36,6.30
2022,04,27,06,37,6.30
2022,04,27,06,38,6.30
2022,04,27,06,39,6.30
2022,04,27,06,40,6.30
2022,04,27,06,41,6.30
2022,04,27,06,42,6.30
2022,04,27,06,43,6.30
2022,04,27,06,44,6.30
2022,04,27,06,45,6.30
2022,04,27,06,46,6.30
2022,04,27,06,47,6.30
2022,04,27,06,48,6.30
2022,04,27,06,49,6.30
2022,04,27,06,50,6.30
2022,04,27,06,51,6.30
2022,04,27,06,52,6.30
2022,04,27,06,53,6.40
2022,04,27,06,54,6.40
2022,04,27,06,55,6.40
2022,04,27,06,56,6.40
2022,04,27,06,57,6.40
2022,04,27,06,58,6.40
2022,04,27,06,59,6.40
2022,04,27,07,00,6.40
2022,04,27,07,01,6.40
2022,04,27,07,02,6.40
2022,04,27,07,03,6.40
2022,04,27,07,04,6.40
2022,04,27,07,05,6.50
2022,04,27,07,06,6.50
2022,04,27,07,07,6.50
2022,04,27,07,08,6.50
2022,04,27,07,09,6.50
2022,04,27,07,10,6.50
2022,04,27,07,11,6.50
2022,04,27,07,12,6.50
2022,04,27,07,13,6.50
2022,04,27,07,14,6.50
2022,04,27,07,15,6.50
2022,04,27,07,16,6.60
2022,04,27,07,17,6.60
2022,04,27,07,18,6.60
2022,04,27,07,19,6.60
2022,04,27,07,20,6.60
2022,04,27,07,21,6.60
2022,04,27,07,22,6.60
2022,04,27,07,23,6.60
2022,04,27,07,24,6.60
2022,04,27,07,25,6.70
2022,04,27,07,26,6.70
2022,04,27,07,27,6.70
2022,04,27,07,28,6.70
2022,04,27,07,29,6.70
2022,04,27,07,30,6.70
2022,04,27,07,31,6.70
2022,04,27,07,32,6.70
2022,04,27,07,33,6.70
2022,04,27,07,34,6.80
2022,04,27,07,35,6.80
2022,04,27,07,36,6.80
2022,04,27,07,37,6.80
2022,04,27,07,38,6.90
2022,04,27,07,39,6.90
2022,04,27,07,40,6.90
2022,04,27,07,41,6.90
2022,04,27,07,42,7.00
2022,04,27,07,43,7.00
2022,04,27,07,44,7.00
2022,04,27,07,45,7.10
2022,04,27,07,46,7.10
2022,04,27,07,47,7.10
2022,04,27,07,48,7.10
2022,04,27,07,49,7.10
2022,04,27,07,50,7.10
2022,04,27,07,51,7.10
2022,04,27,07,52,7.10
2022,04,27,07,53,7.10
2022,04,27,07,54,7.10
2022,04,27,07,55,7.10
2022,04,27,07,56,7.10
2022,04,27,07,57,7.10
2022,04,27,07,58,7.10
2022,04,27,07,59,7.10
2022,04,27,08,00,7.10
2022,04,27,08,01,7.10
2022,04,27,08,02,7.10
2022,04,27,08,03,7.10
2022,04,27,08,04,7.10
2022,04,27,08,05,7.10
2022,04,27,08,06,7.10
2022,04,27,08,07,7.10
2022,04,27,08,08,7.10
2022,04,27,08,09,7.10
2022,04,27,08,10,7.10
2022,04,27,08,11,7.10
2022,04,27,08,12,7.10
2022,04,27,08,13,7.10
2022,04,27,08,14,7.10
2022,04,27,08,15,7.00
2022,04,27,08,16,7.00
2022,04,27,08,17,7.00
2022,04,27,08,18,7.00
2022,04,27,08,19,7.00
2022,04,27,08,20,7.00
2022,04,27,08,21,7.00
2022,04,27,08,22,6.90
2022,04,27,08,23,6.90
2022,04,27,08,24,6.90
2022,04,27,08,25,6.90
2022,04,27,08,26,6.90
2022,04,27,08,27,6.90
2022,04,27,08,28,6.90
2022,04,27,08,29,6.90
2022,04,27,08,30,6.90
2022,04,27,08,31,6.90
2022,04,27,08,32,6.90
2022,04,27,08,33,6.90
2022,04,27,08,34,6.90
2022,04,27,08,35,6.90
2022,04,27,08,36,6.90
2022,04,27,08,37,6.90
2022,04,27,08,38,6.90
2022,04,27,08,39,6.90
2022,04,27,08,40,6.90
2022,04,27,08,41,6.90
2022,04,27,08,42,6.90
2022,04,27,08,43,7.00
2022,04,27,08,44,7.00
2022,04,27,08,45,7.00
2022,04,27,08,46,7.00
2022,04,27,08,47,7.00
2022,04,27,08,48,7.10
2022,04,27,08,49,7.10
2022,04,27,08,50,7.10
2022,04,27,08,51,7.10
2022,04,27,08,52,7.10
2022,04,27,08,53,7.10
2022,04,27,08,54,7.10
2022,04,27,08,55,7.10
2022,04,27,08,56,7.10
2022,04,27,08,57,7.10
2022,04,27,08,58,7.10
2022,04,27,08,59,7.10
2022,04,27,09,00,7.10
2022,04,27,09,01,7.20
2022,04,27,09,02,7.20
2022,04,27,09,03,7.20
2022,04,27,09,04,7.20
2022,04,27,09,05,7.20
2022,04,27,09,06,7.20
2022,04,27,09,07,7.20
2022,04,27,09,08,7.20
2022,04,27,09,09,7.20
2022,04,27,09,10,7.20
2022,04,27,09,11,7.20
2022,04,27,09,12,7.20
2022,04,27,09,13,7.30
2022,04,27,09,14,7.30
2022,04,27,09,15,7.30
2022,04,27,09,16,7.30
2022,04,27,09,17,7.30
2022,04,27,09,18,7.30
2022,04,27,09,19,7.30
2022,04,27,09,20,7.40
2022,04,27,09,21,7.40
2022,04,27,09,22,7.40
2022,04,27,09,23,7.40
2022,04,27,09,24,7.40
2022,04,27,09,25,7.50
2022,04,27,09,26,7.50
2022,04,27,09,27,7.50
2022,04,27,09,28,7.60
2022,04,27,09,29,7.60
2022,04,27,09,30,7.60
2022,04,27,09,31,7.60
2022,04,27,09,32,7.60
2022,04,27,09,33,7.70
2022,04,27,09,34,7.70
2022,04,27,09,35,7.80
2022,04,27,09,36,7.80
2022,04,27,09,37,7.80
2022,04,27,09,38,7.90
2022,04,27,09,39,8.00
2022,04,27,09,40,8.10
2022,04,27,09,41,8.20
2022,04,27,09,42,8.30
2022,04,27,09,43,8.50
2022,04,27,09,44,8.60
2022,04,27,09,45,8.70
2022,04,27,09,46,8.80
2022,04,27,09,47,8.90
2022,04,27,09,48,8.90
2022,04,27,09,49,9.00
2022,04,27,09,50,9.00
2022,04,27,09,51,9.10
2022,04,27,09,52,9.10
2022,04,27,09,53,9.10
2022,04,27,09,54,9.10
2022,04,27,09,55,9.10
2022,04,27,09,56,9.20
2022,04,27,09,57,9.20
2022,04,27,09,58,9.20
2022,04,27,09,59,9.20
2022,04,27,10,00,9.20
2022,04,27,10,01,9.10
2022,04,27,10,02,9.10
2022,04,27,10,03,9.10
2022,04,27,10,04,9.10
2022,04,27,10,05,9.10
2022,04,27,10,06,9.10
2022,04,27,10,07,9.10
2022,04,27,10,08,9.10
2022,04,27,10,09,9.10
2022,04,27,10,10,9.00
2022,04,27,10,11,9.00
2022,04,27,10,12,8.90
2022,04,27,10,13,8.90
2022,04,27,10,14,8.80
2022,04,27,10,15,8.70
2022,04,27,10,16,8.70
2022,04,27,10,17,8.70
2022,04,27,10,18,8.70
2022,04,27,10,19,8.60
2022,04,27,10,20,8.60
2022,04,27,10,21,8.60
2022,04,27,10,22,8.60
2022,04,27,10,23,8.60
2022,04,27,10,24,8.60
2022,04,27,10,25,8.60
2022,04,27,10,26,8.50
2022,04,27,10,27,8.50
2022,04,27,10,28,8.50
2022,04,27,10,29,8.60
2022,04,27,10,30,8.60
2022,04,27,10,31,8.60
2022,04,27,10,32,8.70
2022,04,27,10,33,8.70
2022,04,27,10,34,8.80
2022,04,27,10,35,8.90
2022,04,27,10,36,8.90
2022,04,27,10,37,8.90
2022,04,27,10,38,8.80
2022,04,27,10,39,8.80
2022,04,27,10,40,8.80
2022,04,27,10,41,8.80
2022,04,27,10,42,8.80
2022,04,27,10,43,8.80
2022,04,27,10,44,8.90
2022,04,27,10,45,8.90
2022,04,27,10,46,8.90
2022,04,27,10,47,8.90
2022,04,27,10,48,9.00
2022,04,27,10,49,9.00
2022,04,27,10,50,9.10
2022,04,27,10,51,9.10
2022,04,27,10,52,9.10
2022,04,27,10,53,9.10
2022,04,27,10,54,9.10
2022,04,27,10,55,9.10
2022,04,27,10,56,9.10
2022,04,27,10,57,9.10
2022,04,27,10,58,9.10
2022,04,27,10,59,9.20
2022,04,27,11,00,9.20
2022,04,27,11,01,9.30
2022,04,27,11,02,9.30
2022,04,27,11,03,9.30
2022,04,27,11,04,9.30
2022,04,27,11,05,9.30
2022,04,27,11,06,9.40
2022,04,27,11,07,9.40
2022,04,27,11,08,9.50
2022,04,27,11,09,9.60
2022,04,27,11,10,9.70
2022,04,27,11,11,9.70
2022,04,27,11,12,9.70
2022,04,27,11,13,9.70
2022,04,27,11,14,9.70
2022,04,27,11,15,9.70
2022,04,27,11,16,9.70
2022,04,27,11,17,9.70
2022,04,27,11,18,9.80
2022,04,27,11,19,9.80
2022,04,27,11,20,9.80
2022,04,27,11,21,9.80
2022,04,27,11,22,9.80
2022,04,27,11,23,9.80
2022,04,27,11,24,9.70
2022,04,27,11,25,9.70
2022,04,27,11,26,9.60
2022,04,27,11,27,9.50
2022,04,27,11,28,9.40
2022,04,27,11,29,9.30
2022,04,27,11,30,9.30
2022,04,27,11,31,9.20
2022,04,27,11,32,9.30
2022,04,27,11,33,9.30
2022,04,27,11,34,9.30
2022,04,27,11,35,9.30
2022,04,27,11,36,9.30
2022,04,27,11,37,9.30
2022,04,27,11,38,9.30
2022,04,27,11,39,9.20
2022,04,27,11,40,9.20
2022,04,27,11,41,9.20
2022,04,27,11,42,9.10
2022,04,27,11,43,9.10
2022,04,27,11,44,9.10
2022,04,27,11,45,9.10
2022,04,27,11,46,9.10
2022,04,27,11,47,9.20
2022,04,27,11,48,9.20
2022,04,27,11,49,9.30
2022,04,27,11,50,9.40
2022,04,27,11,51,9.40
2022,04,27,11,52,9.40
2022,04,27,11,53,9.30
2022,04,27,11,54,9.40
2022,04,27,11,55,9.50
2022,04,27,11,56,9.60
2022,04,27,11,57,9.70
2022,04,27,11,58,9.70
2022,04,27,11,59,9.70
2022,04,27,12,00,9.70
2022,04,27,12,01,9.70
2022,04,27,12,02,9.70
2022,04,27,12,03,9.70
2022,04,27,12,04,9.80
2022,04,27,12,05,9.80
2022,04,27,12,06,9.80
2022,04,27,12,07,9.80
2022,04,27,12,08,9.80
2022,04,27,12,09,9.80
2022,04,27,12,10,9.90
2022,04,27,12,11,9.90
2022,04,27,12,12,10.00
2022,04,27,12,13,10.00
2022,04,27,12,14,10.10
2022,04,27,12,15,10.10
2022,04,27,12,16,10.20
2022,04,27,12,17,10.30
2022,04,27,12,18,10.30
2022,04,27,12,19,10.30
2022,04,27,12,20,10.30
2022,04,27,12,21,10.30
2022,04,27,12,22,10.30
2022,04,27,12,23,10.30
2022,04,27,12,24,10.20
2022,04,27,12,25,10.30
2022,04,27,12,26,10.30
2022,04,27,12,27,10.30
2022,04,27,12,28,10.30
2022,04,27,12,29,10.30
2022,04,27,12,30,10.20
2022,04,27,12,31,10.10
2022,04,27,12,32,10.10
2022,04,27,12,33,10.10
2022,04,27,12,34,10.10
2022,04,27,12,35,10.20
2022,04,27,12,36,10.20
2022,04,27,12,37,10.20
2022,04,27,12,38,10.20
2022,04,27,12,39,10.20
2022,04,27,12,40,10.20
2022,04,27,12,41,10.20
2022,04,27,12,42,10.20
2022,04,27,12,43,10.10
2022,04,27,12,44,10.10
2022,04,27,12,45,10.00
2022,04,27,12,46,10.00
2022,04,27,12,47,10.10
2022,04,27,12,48,10.10
2022,04,27,12,49,10.10
2022,04,27,12,50,10.20
2022,04,27,12,51,10.20
2022,04,27,12,52,10.20
2022,04,27,12,53,10.20
2022,04,27,12,54,10.20
2022,04,27,12,55,10.20
2022,04,27,12,56,10.20
2022,04,27,12,57,10.30
2022,04,27,12,58,10.30
2022,04,27,12,59,10.40
2022,04,27,13,00,10.40
2022,04,27,13,01,10.40
2022,04,27,13,02,10.50
2022,04,27,13,03,10.40
2022,04,27,13,04,10.40
2022,04,27,13,05,10.30
2022,04,27,13,06,10.30
2022,04,27,13,07,10.20
2022,04,27,13,08,10.20
2022,04,27,13,09,10.30
2022,04,27,13,10,10.30
2022,04,27,13,11,10.30
2022,04,27,13,12,10.30
2022,04,27,13,13,10.30
2022,04,27,13,14,10.40
2022,04,27,13,15,10.40
2022,04,27,13,16,10.40
2022,04,27,13,17,10.40
2022,04,27,13,18,10.40
2022,04,27,13,19,10.40
2022,04,27,13,20,10.40
2022,04,27,13,21,10.40
2022,04,27,13,22,10.40
2022,04,27,13,23,10.40
2022,04,27,13,24,10.40
2022,04,27,13,25,10.40
2022,04,27,13,26,10.40
2022,04,27,13,27,10.50
2022,04,27,13,28,10.50
2022,04,27,13,29,10.50
2022,04,27,13,30,10.60
2022,04,27,13,31,10.60
2022,04,27,13,32,10.70
2022,04,27,13,33,10.80
2022,04,27,13,34,10.80
2022,04,27,13,35,10.80
2022,04,27,13,36,10.90
2022,04,27,13,37,11.00
2022,04,27,13,38,11.10
2022,04,27,13,39,11.10
2022,04,27,13,40,11.20
2022,04,27,13,41,11.20
2022,04,27,13,42,11.20
2022,04,27,13,43,11.30
2022,04,27,13,44,11.50
2022,04,27,13,45,11.70
2022,04,27,13,46,11.70
2022,04,27,13,47,11.80
2022,04,27,13,48,11.90
2022,04,27,13,49,12.00
2022,04,27,13,50,12.00
2022,04,27,13,51,11.90
2022,04,27,13,52,11.70
2022,04,27,13,53,11.40
2022,04,27,13,54,11.20
2022,04,27,13,55,10.90
2022,04,27,13,56,10.70
2022,04,27,13,57,10.50
2022,04,27,13,58,10.40
2022,04,27,13,59,10.30
2022,04,27,14,00,10.30
2022,04,27,14,01,10.20
2022,04,27,14,02,10.20
2022,04,27,14,03,10.20
2022,04,27,14,04,10.20
2022,04,27,14,05,10.20
2022,04,27,14,06,10.10
2022,04,27,14,07,10.10
2022,04,27,14,08,10.00
2022,04,27,14,09,10.00
2022,04,27,14,10,10.00
2022,04,27,14,11,9.90
2022,04,27,14,12,9.90
2022,04,27,14,13,9.90
2022,04,27,14,14,9.90
2022,04,27,14,15,9.90
2022,04,27,14,16,9.90
2022,04,27,14,17,9.90
2022,04,27,14,18,9.90
2022,04,27,14,19,9.90
2022,04,27,14,20,10.00
2022,04,27,14,21,10.00
2022,04,27,14,22,10.00
2022,04,27,14,23,10.10
2022,04,27,14,24,10.10
2022,04,27,14,25,10.20
2022,04,27,14,26,10.30
2022,04,27,14,27,10.30
2022,04,27,14,28,10.40
2022,04,27,14,29,10.40
2022,04,27,14,30,10.50
2022,04,27,14,31,10.50
2022,04,27,14,32,10.50
2022,04,27,14,33,10.60
2022,04,27,14,34,10.60
2022,04,27,14,35,10.70
2022,04,27,14,36,10.70
2022,04,27,14,37,10.70
2022,04,27,14,38,10.80
2022,04,27,14,39,10.80
2022,04,27,14,40,10.90
2022,04,27,14,41,10.90
2022,04,27,14,42,11.00
2022,04,27,14,43,11.00
2022,04,27,14,44,11.00
2022,04,27,14,45,11.00
2022,04,27,14,46,11.00
2022,04,27,14,47,11.00
2022,04,27,14,48,11.10
2022,04,27,14,49,11.10
2022,04,27,14,50,11.10
2022,04,27,14,51,11.10
2022,04,27,14,52,11.10
2022,04,27,14,53,11.10
2022,04,27,14,54,11.10
2022,04,27,14,55,11.10
2022,04,27,14,56,11.20
2022,04,27,14,57,11.20
2022,04,27,14,58,11.30
2022,04,27,14,59,11.40
2022,04,27,15,00,11.50
2022,04,27,15,01,11.70
2022,04,27,15,02,11.80
2022,04,27,15,03,11.80
2022,04,27,15,04,11.80
2022,04,27,15,05,11.80
2022,04,27,15,06,11.80
2022,04,27,15,07,11.80
2022,04,27,15,08,11.60
2022,04,27,15,09,11.50
2022,04,27,15,10,11.50
2022,04,27,15,11,11.40
2022,04,27,15,12,11.30
2022,04,27,15,13,11.20
2022,04,27,15,14,11.10
2022,04,27,15,15,11.00
2022,04,27,15,16,10.90
2022,04,27,15,17,10.90
2022,04,27,15,18,10.80
2022,04,27,15,19,10.80
2022,04,27,15,20,10.80
2022,04,27,15,21,10.90
2022,04,27,15,22,10.90
2022,04,27,15,23,10.90
2022,04,27,15,24,10.90
2022,04,27,15,25,10.90
2022,04,27,15,26,10.80
2022,04,27,15,27,10.80
2022,04,27,15,28,10.70
2022,04,27,15,29,10.70
2022,04,27,15,30,10.70
2022,04,27,15,31,10.70
2022,04,27,15,32,10.60
2022,04,27,15,33,10.60
2022,04,27,15,34,10.60
2022,04,27,15,35,10.50
2022,04,27,15,36,10.50
2022,04,27,15,37,10.50
2022,04,27,15,38,10.40
2022,04,27,15,39,10.50
2022,04,27,15,40,10.50
2022,04,27,15,41,10.50
2022,04,27,15,42,10.40
2022,04,27,15,43,10.40
2022,04,27,15,44,10.40
2022,04,27,15,45,10.50
2022,04,27,15,46,10.50
2022,04,27,15,47,10.50
2022,04,27,15,48,10.60
2022,04,27,15,49,10.60
2022,04,27,15,50,10.70
2022,04,27,15,51,10.70
2022,04,27,15,52,10.80
2022,04,27,15,53,10.80
2022,04,27,15,54,10.90
2022,04,27,15,55,11.00
2022,04,27,15,56,11.10
2022,04,27,15,57,11.20
2022,04,27,15,58,11.20
2022,04,27,15,59,11.30
2022,04,27,16,00,11.40
2022,04,27,16,01,11.40
2022,04,27,16,02,11.40
2022,04,27,16,03,11.40
2022,04,27,16,04,11.40
2022,04,27,16,05,11.50
2022,04,27,16,06,11.50
2022,04,27,16,07,11.50
2022,04,27,16,08,11.50
2022,04,27,16,09,11.40
2022,04,27,16,10,11.40
2022,04,27,16,11,11.40
2022,04,27,16,12,11.40
2022,04,27,16,13,11.30
2022,04,27,16,14,11.30
2022,04,27,16,15,11.20
2022,04,27,16,16,11.20
2022,04,27,16,17,11.20
2022,04,27,16,18,11.10
2022,04,27,16,19,11.10
2022,04,27,16,20,11.10
2022,04,27,16,21,11.10
2022,04,27,16,22,11.10
2022,04,27,16,23,11.10
2022,04,27,16,24,11.10
2022,04,27,16,25,11.10
2022,04,27,16,26,11.10
2022,04,27,16,27,11.10
2022,04,27,16,28,11.10
2022,04,27,16,29,11.10
2022,04,27,16,30,11.10
2022,04,27,16,31,11.10
2022,04,27,16,32,11.00
2022,04,27,16,33,11.00
2022,04,27,16,34,11.00
2022,04,27,16,35,11.00
2022,04,27,16,36,11.10
2022,04,27,16,37,11.10
2022,04,27,16,38,11.10
2022,04,27,16,39,11.10
2022,04,27,16,40,11.10
2022,04,27,16,41,11.10
2022,04,27,16,42,11.00
2022,04,27,16,43,11.00
2022,04,27,16,44,11.00
2022,04,27,16,45,10.90
2022,04,27,16,46,10.90
2022,04,27,16,47,10.90
2022,04,27,16,48,10.90
2022,04,27,16,49,10.90
2022,04,27,16,50,10.90
2022,04,27,16,51,10.80
2022,04,27,16,52,10.80
2022,04,27,16,53,10.70
2022,04,27,16,54,10.70
2022,04,27,16,55,10.70
2022,04,27,16,56,10.60
2022,04,27,16,57,10.60
2022,04,27,16,58,10.50
2022,04,27,16,59,10.50
2022,04,27,17,00,10.40
2022,04,27,17,01,10.40
2022,04,27,17,02,10.30
2022,04,27,17,03,10.30
2022,04,27,17,04,10.20
2022,04,27,17,05,10.20
2022,04,27,17,06,10.20
2022,04,27,17,07,10.20
2022,04,27,17,08,10.20
2022,04,27,17,09,10.10
2022,04,27,17,10,10.10
2022,04,27,17,11,10.10
2022,04,27,17,12,10.00
2022,04,27,17,13,10.00
2022,04,27,17,14,9.90
2022,04,27,17,15,9.90
2022,04,27,17,16,9.90
2022,04,27,17,17,9.90
2022,04,27,17,18,9.80
2022,04,27,17,19,9.80
2022,04,27,17,20,9.80
2022,04,27,17,21,9.80
2022,04,27,17,22,9.80
2022,04,27,17,23,9.80
2022,04,27,17,24,9.80
2022,04,27,17,25,9.70
2022,04,27,17,26,9.70
2022,04,27,17,27,9.70
2022,04,27,17,28,9.70
2022,04,27,17,29,9.70
2022,04,27,17,30,9.70
2022,04,27,17,31,9.70
2022,04,27,17,32,9.60
2022,04,27,17,33,9.60
2022,04,27,17,34,9.60
2022,04,27,17,35,9.60
2022,04,27,17,36,9.60
2022,04,27,17,37,9.60
2022,04,27,17,38,9.60
2022,04,27,17,39,9.60
2022,04,27,17,40,9.60
2022,04,27,17,41,9.60
2022,04,27,17,42,9.60
2022,04,27,17,43,9.60
2022,04,27,17,44,9.60
2022,04,27,17,45,9.70
2022,04,27,17,46,9.70
2022,04,27,17,47,9.70
2022,04,27,17,48,9.70
2022,04,27,17,49,9.70
2022,04,27,17,50,9.70
2022,04,27,17,51,9.70
2022,04,27,17,52,9.70
2022,04,27,17,53,9.80